Theta_e
324 326 325 325 328 330 335 332 328 329 332 328 328 329 335 336 343 343 338 337 339 335 338 339 337 334 332 330 329 330 330 329 328 329 328 330 329 327 330 330 327 327 328 327 326 326 326 326 327
324 325 325 324 329 334 332 331 337 334 330 328 330 332 333 340 337 337 338 339 338 335 337 338 336 333 330 328 329 328 328 328 327 328 328 329 328 329 334 331 327 327 328 326 325 325 327 326 326
324 325 322 329 331 334 332 334 334 333 331 331 333 331 336 339 335 337 338 338 338 336 335 337 335 332 328 328 328 328 328 329 328 328 328 328 330 327 330 329 327 327 327 326 325 325 326 324 321
325 324 322 329 332 329 327 332 332 333 332 331 332 335 334 335 336 338 338 337 337 338 337 335 334 331 329 327 327 326 327 328 328 327 329 327 329 328 329 326 325 326 326 325 326 325 322 317 318
324 321 326 332 334 325 324 329 331 333 331 332 332 334 337 338 338 338 338 337 338 338 337 335 333 331 330 328 328 326 328 328 328 327 328 326 327 326 326 326 325 326 325 327 325 324 318 317 316
321 322 327 330 333 325 325 327 330 330 330 330 330 334 337 338 338 338 338 337 337 336 336 335 333 332 331 330 328 326 326 326 325 326 326 326 326 326 325 325 326 325 327 326 325 320 318 316 315
324 326 330 330 331 331 328 327 329 329 330 331 329 335 336 336 338 337 338 337 336 336 336 334 333 332 332 332 329 326 325 325 325 325 325 324 325 325 324 324 325 326 326 326 322 318 318 317 316
320 322 329 327 328 331 328 328 327 327 331 329 329 332 337 335 338 337 337 336 336 336 335 334 332 332 332 332 330 327 326 324 326 324 325 324 323 324 324 323 324 324 325 323 319 319 318 318 317
321 322 326 328 329 328 328 329 326 326 329 329 329 329 331 337 337 337 337 335 337 336 336 335 332 332 331 331 331 329 327 323 324 325 324 323 323 323 323 323 323 324 322 320 319 319 319 318 318
321 322 325 324 324 324 324 325 326 327 327 330 330 335 336 337 336 336 336 336 336 334 334 334 333 332 331 331 332 330 328 324 323 324 323 322 322 321 322 323 323 324 322 319 319 318 319 321 322
323 323 323 323 321 319 321 321 322 326 326 324 330 336 335 336 336 335 334 334 335 333 332 332 333 333 332 331 331 331 328 326 323 322 322 321 324 323 323 324 324 323 321 318 319 319 318 322 322
327 324 323 323 319 320 321 320 320 322 322 323 324 334 334 333 334 334 334 334 334 333 332 331 330 332 333 330 330 329 329 327 325 324 322 324 324 324 324 324 324 322 319 318 320 322 322 323 323
325 324 325 324 321 321 321 322 322 320 318 320 328 332 334 333 333 335 335 334 334 333 333 332 330 331 332 332 330 330 329 328 327 326 325 324 325 325 325 324 322 317 317 318 323 323 323 323 323
324 325 325 324 323 322 323 321 321 320 319 319 322 328 330 333 332 333 334 333 333 334 334 333 331 331 331 333 331 330 329 329 328 327 326 325 325 325 324 322 323 322 320 321 322 323 323 323 322
325 326 324 324 324 324 322 323 322 319 318 319 318 319 323 328 333 333 333 333 333 333 334 333 332 330 331 332 332 330 329 329 328 328 327 326 325 325 324 323 323 322 322 321 322 322 323 323 323
326 326 328 325 324 324 324 328 322 319 318 319 317 316 319 321 328 334 334 334 334 333 334 334 332 331 330 331 331 331 330 329 328 328 328 327 325 324 324 323 323 322 322 321 321 322 323 324 323
327 328 327 326 324 324 323 326 323 321 319 318 316 315 315 318 320 329 333 334 334 334 333 334 333 333 331 330 331 332 331 330 329 329 329 328 327 324 323 323 322 322 321 321 321 322 323 323 323
330 330 329 328 324 323 325 325 322 321 321 319 320 318 318 317 318 324 329 332 333 333 333 331 334 333 333 332 331 331 332 331 331 330 330 329 327 326 322 323 323 322 321 321 321 321 322 324 324
324 323 324 322 323 324 323 322 322 321 320 319 318 319 320 321 322 323 326 329 332 333 332 332 331 333 333 332 332 331 331 331 331 330 330 329 328 327 325 322 323 322 321 321 321 321 323 324 324
326 327 325 322 324 325 324 325 322 321 320 319 319 318 316 318 318 320 322 326 330 332 332 332 332 333 333 333 332 331 331 331 331 330 330 329 329 328 326 324 322 323 321 320 321 321 323 323 324
324 326 324 324 323 324 326 326 324 321 320 320 320 320 320 317 317 315 317 321 327 330 331 331 332 332 333 333 332 331 331 331 331 330 329 329 329 328 327 326 324 323 323 322 321 323 323 323 323
324 321 322 324 324 326 324 327 322 319 318 317 319 320 320 320 319 318 316 317 320 327 329 330 331 331 332 333 332 331 331 331 331 331 330 329 329 329 328 326 325 324 323 323 323 323 322 323 322
323 320 321 323 325 325 323 323 319 318 319 318 316 317 318 319 319 318 316 319 320 320 326 328 330 331 332 332 332 332 331 331 331 331 330 329 329 329 329 327 326 325 324 324 323 323 323 322 322
321 322 323 325 324 327 322 323 320 318 318 317 317 315 315 313 312 313 315 315 317 318 320 325 328 329 331 331 332 332 332 332 331 330 329 329 329 328 329 328 327 325 325 324 324 324 323 323 323
323 325 327 327 328 324 320 323 320 317 317 316 317 314 312 310 310 310 310 311 313 314 316 318 322 326 329 330 331 331 332 332 331 330 329 329 329 328 328 328 327 326 326 325 324 324 323 323 323
325 324 324 326 326 321 317 324 321 317 316 316 315 313 310 309 309 309 309 311 312 313 313 313 316 319 322 327 329 331 331 331 331 331 330 329 329 329 329 329 328 328 327 326 325 324 324 323 323
324 325 319 318 306 315 317 317 316 316 315 314 313 310 309 309 309 310 311 311 312 312 312 312 312 312 316 319 321 328 330 331 332 331 331 330 329 329 329 329 329 328 327 327 326 325 324 324 324
322 320 324 323 323 320 316 317 316 317 315 313 312 310 310 308 309 309 309 310 311 312 312 312 312 311 311 312 316 319 322 326 330 331 331 331 330 330 329 329 330 329 328 327 326 325 325 324 324
323 324 323 322 320 320 317 315 311 313 313 313 311 309 309 308 309 309 310 311 310 310 311 312 311 311 311 310 310 314 318 322 324 328 331 331 331 331 330 330 330 330 328 328 326 326 326 325 324
318 322 322 325 323 318 316 317 312 312 311 311 310 310 309 309 310 310 311 309 308 309 310 310 311 311 312 311 310 310 311 315 320 323 327 330 331 331 331 330 330 330 329 328 327 326 325 325 325
Wind_Speed
25 23 18 5 4 5 2 3 3 4 3 1 2 6 8 3 3 3 7 15 19 19 18 15 14 13 12 14 15 16 16 15 14 14 13 13 13 13 14 17 17 15 15 15 15 14 13 13 14
27 20 6 2 4 4 3 4 7 3 4 5 6 4 3 2 3 6 12 19 15 18 18 16 14 13 13 14 16 16 17 15 15 14 13 14 11 11 17 16 15 14 15 14 14 13 13 12 12
23 13 3 3 1 1 2 3 6 3 5 1 3 4 3 3 1 14 10 20 17 16 17 16 13 14 14 15 17 16 16 15 13 13 13 14 11 11 13 14 13 14 14 13 12 12 11 12 12
13 8 4 3 4 3 5 7 8 4 4 5 3 4 4 3 14 11 21 20 21 19 15 17 14 14 14 15 15 14 15 15 13 13 14 14 12 13 13 10 14 13 12 12 11 10 11 11 12
7 3 3 2 5 2 3 8 7 6 5 3 2 4 3 4 16 20 19 20 22 20 15 15 14 14 15 14 14 13 16 13 13 13 12 13 12 12 10 11 10 12 11 10 10 10 10 10 10
4 2 3 3 5 3 3 3 5 5 6 5 3 6 3 15 18 24 17 21 19 16 12 15 15 15 14 15 14 14 15 13 12 13 12 13 12 11 11 10 10 9 10 10 9 8 9 10 11
2 3 3 3 4 1 2 3 1 4 6 4 5 4 3 8 17 23 14 19 15 14 13 17 17 16 15 14 14 14 13 13 12 13 12 11 13 11 10 10 10 10 9 8 7 6 7 8 10
3 3 3 3 3 1 5 3 1 5 1 0 2 5 5 10 21 21 14 16 15 17 15 15 17 16 16 16 14 14 12 12 14 12 15 12 13 12 11 10 9 9 8 7 6 5 5 6 8
3 3 2 4 5 2 1 3 4 3 3 2 2 3 5 28 23 20 16 17 19 20 17 15 17 17 17 17 17 15 13 13 15 13 15 14 13 14 14 12 10 9 8 7 6 5 4 4 7
3 3 6 1 4 3 2 2 4 1 2 1 5 8 22 27 25 22 20 20 22 24 19 18 16 16 18 17 19 18 15 15 16 16 16 14 13 12 15 14 12 11 9 8 6 5 4 5 4
4 5 3 2 2 5 2 7 3 4 2 6 8 11 14 18 21 20 22 24 22 24 22 22 21 19 21 19 20 18 17 16 16 16 16 15 14 13 14 13 16 15 13 10 8 7 7 5 3
2 6 4 4 2 3 3 4 7 2 6 3 2 16 14 11 17 21 23 24 23 19 24 24 24 25 27 23 21 19 19 17 17 17 14 18 18 17 16 17 15 17 15 13 10 7 7 6 5
4 5 5 5 3 3 1 4 3 8 11 5 7 14 11 12 17 22 26 24 23 25 26 27 26 27 29 28 25 23 22 21 18 19 17 19 17 21 18 18 14 17 16 15 13 11 10 9 8
3 6 6 6 6 3 3 6 2 5 5 3 5 10 10 12 20 20 25 27 28 29 28 29 29 29 27 30 29 27 25 24 22 22 22 22 22 24 21 20 19 17 17 16 15 14 13 13 9
4 4 4 4 3 4 3 7 8 11 9 10 8 9 10 13 21 25 30 30 33 34 30 30 31 30 30 29 29 29 28 27 26 26 25 25 27 26 25 23 23 21 19 18 17 16 16 14 12
2 0 3 3 5 6 5 14 6 9 8 12 10 9 9 11 19 29 29 31 31 29 34 28 34 33 33 31 29 31 29 30 30 29 28 27 27 28 26 25 26 25 23 21 20 19 18 17 16
3 4 6 6 5 6 10 11 8 11 8 9 10 10 9 10 14 28 33 33 32 32 32 34 31 37 36 33 32 31 31 31 31 32 32 30 28 28 29 28 27 25 25 24 23 23 22 21 19
8 4 2 3 7 10 17 17 7 8 8 8 8 8 8 9 11 26 33 36 36 35 33 32 35 35 37 37 33 31 30 32 31 32 34 33 31 30 31 31 30 28 27 26 26 25 23 23 22
5 3 3 1 4 10 6 8 8 8 8 9 9 9 9 10 14 15 32 36 36 36 35 34 36 38 37 38 37 36 37 35 35 35 36 35 34 33 32 35 33 32 31 31 30 27 26 25 22
5 5 5 6 3 2 8 20 16 13 11 9 8 9 9 9 9 17 17 32 37 41 41 38 37 40 44 41 41 35 31 34 37 37 37 35 36 36 36 36 38 35 34 32 32 31 30 29 24
12 18 13 8 3 1 8 19 16 13 11 14 17 18 14 12 13 10 18 30 37 36 41 41 41 41 43 42 34 31 28 30 30 37 39 41 38 38 39 39 39 39 37 37 36 35 34 25 29
17 15 11 9 4 4 4 8 7 6 13 14 15 18 20 19 18 15 11 15 23 36 43 43 42 42 42 41 34 34 33 31 37 36 34 36 42 42 43 43 41 41 40 40 41 40 39 33 25
11 11 14 7 6 1 6 3 7 7 7 17 10 12 13 15 16 14 11 22 27 26 37 41 42 43 41 40 39 35 33 34 32 33 33 38 41 46 46 46 45 44 43 44 43 40 42 38 30
6 8 7 4 5 7 12 9 8 7 9 4 4 7 6 8 8 7 8 10 11 7 8 30 31 38 40 39 43 41 38 36 30 31 33 34 36 39 46 47 49 48 45 43 44 45 40 40 38
7 9 5 5 6 6 7 9 17 9 6 4 6 8 8 8 8 8 9 13 14 11 7 5 13 28 35 39 39 40 40 35 36 34 34 31 32 33 39 46 45 46 48 45 42 40 40 41 39
18 12 5 6 5 5 9 8 7 11 11 7 7 8 9 9 8 8 7 11 13 15 14 10 8 14 21 31 37 40 39 36 36 35 34 32 34 34 34 39 45 47 46 45 41 39 40 37 40
13 12 5 5 2 2 5 7 9 10 5 6 9 9 7 8 7 5 5 5 6 9 12 13 15 15 18 22 27 34 37 36 34 35 33 34 35 36 36 37 43 45 44 45 42 39 39 38 40
9 10 6 3 6 5 5 5 5 4 7 8 10 9 6 6 6 3 4 5 8 13 13 13 12 15 17 17 21 27 32 35 38 36 35 34 36 37 37 39 43 44 44 44 41 38 38 36 39
6 10 7 6 3 7 3 5 5 9 10 11 9 9 9 7 4 4 4 8 15 17 18 16 15 18 20 20 18 19 23 28 33 38 39 42 42 40 40 41 43 45 44 44 42 40 38 36 37
8 6 7 9 8 3 3 4 5 9 10 7 7 7 5 4 1 5 6 11 17 19 20 21 21 21 22 21 20 20 22 25 27 31 36 39 40 41 43 42 44 46 47 46 44 42 40 38 37
Wind_Direction
340 342 335 353 38 57 6 337 120 97 59 45 76 77 122 68 59 166 124 169 145 150 147 145 139 128 119 111 110 110 108 108 111 112 111 111 104 105 115 108 102 107 106 101 96 90 88 86 84
340 343 7 32 75 49 313 70 77 77 118 83 49 44 68 101 97 143 123 150 147 150 153 152 143 131 122 113 114 110 112 117 117 120 118 120 120 112 126 117 113 114 110 103 96 90 87 83 89
343 335 67 87 81 101 130 110 127 77 61 98 69 54 81 110 76 149 146 152 145 151 152 154 147 136 128 122 124 124 123 122 126 124 125 127 117 117 116 113 107 112 110 106 98 95 92 89 92
333 350 11 86 260 303 122 162 136 102 12 26 87 68 47 356 153 169 146 156 148 157 153 157 153 144 135 129 126 125 128 133 132 131 126 135 125 121 123 115 115 119 113 109 106 100 90 89 99
348 62 27 348 287 143 104 148 140 153 163 167 115 168 106 49 141 153 145 161 157 156 155 162 159 154 145 138 136 134 133 135 137 130 133 137 134 137 138 129 125 130 123 118 109 104 93 86 91
359 69 32 330 342 146 89 104 139 151 155 146 103 118 176 147 145 159 150 157 156 157 173 170 166 164 159 150 147 147 149 146 152 147 139 145 148 143 149 141 135 142 135 129 120 107 95 86 85
91 69 243 292 280 125 146 140 115 170 155 184 154 98 166 161 158 165 155 166 177 170 184 178 173 171 169 166 157 156 158 157 159 160 149 155 156 154 161 155 151 156 148 140 134 121 105 93 88
100 89 297 280 287 176 172 123 77 55 225 53 72 164 197 191 164 172 167 173 178 178 186 182 182 179 176 177 173 168 167 167 163 169 157 160 163 167 167 168 167 187 173 165 155 143 123 105 93
20 56 272 278 346 11 148 108 351 156 109 42 46 119 172 157 160 168 184 177 172 176 184 185 187 187 186 187 185 181 179 176 179 182 175 174 176 177 177 181 177 190 183 174 168 161 149 120 96
110 144 224 28 7 30 350 108 157 93 136 191 67 77 129 150 163 177 189 191 180 181 181 191 194 189 189 192 194 192 191 189 190 191 191 191 187 191 185 181 191 200 204 191 189 183 169 161 123
192 204 270 3 87 25 12 10 342 159 278 213 195 167 156 161 173 187 193 196 192 187 188 194 199 195 190 199 196 204 203 201 200 202 201 194 184 186 188 202 204 209 209 203 206 209 199 202 207
245 261 245 275 94 56 337 304 342 260 232 291 227 173 158 171 184 193 198 201 205 198 198 196 199 197 200 200 205 212 209 205 205 205 199 190 200 205 209 215 218 218 213 208 206 208 204 221 223
211 238 273 291 187 170 295 292 259 294 288 280 110 157 175 181 191 201 205 206 209 215 205 201 202 204 206 205 204 211 214 208 212 210 209 201 206 207 222 228 224 221 215 212 220 223 231 221 227
316 263 262 289 260 237 214 257 93 279 275 287 176 186 181 190 196 199 207 210 213 214 219 208 205 207 207 207 206 210 214 210 216 214 217 214 210 218 220 219 221 224 219 218 224 227 229 227 219
251 282 312 275 245 230 144 286 231 244 255 270 216 209 196 207 196 201 206 210 214 215 216 216 209 208 213 213 212 213 215 216 218 221 224 222 219 220 222 218 220 227 225 226 227 231 232 230 222
304 131 243 219 249 266 151 261 229 259 241 251 249 220 222 218 204 212 213 216 218 220 217 218 212 211 211 218 218 216 221 219 220 222 224 227 227 224 223 226 223 223 225 225 225 228 229 225 230
225 224 234 285 252 263 193 255 237 241 243 251 244 235 222 232 224 216 217 218 217 223 219 217 216 215 213 215 221 223 226 223 224 224 225 227 230 227 223 228 229 228 226 225 225 227 231 234 231
213 207 339 321 352 317 253 249 263 271 270 248 251 236 237 236 231 227 218 218 218 219 222 222 219 219 216 215 219 225 226 226 226 224 225 228 230 231 225 227 229 227 226 226 226 229 230 233 235
130 131 197 266 324 339 344 299 285 276 273 281 272 252 242 246 254 243 226 219 214 213 219 224 219 221 217 215 216 221 223 224 225 227 230 229 232 234 231 228 228 228 226 227 226 228 227 230 231
208 187 234 303 268 1 329 308 301 282 272 250 258 272 253 262 252 254 234 219 212 212 216 218 222 220 220 215 220 220 221 225 226 229 233 238 236 234 234 233 230 228 228 229 229 227 228 233 227
216 225 220 240 11 196 289 278 258 261 251 260 251 250 248 238 241 237 238 220 216 209 212 214 219 219 219 218 215 217 223 229 230 228 231 231 236 236 233 236 236 232 229 230 229 228 228 227 229
223 216 211 201 162 232 157 291 240 247 259 256 262 247 247 248 241 238 233 243 236 221 219 220 219 220 222 217 211 210 212 218 225 230 231 229 231 233 233 234 236 236 233 231 234 233 231 227 223
225 156 189 168 178 259 204 246 278 232 256 254 249 239 244 239 237 233 226 242 251 243 228 227 222 220 220 216 213 213 217 222 226 226 228 231 230 232 234 232 234 234 235 234 233 232 232 229 224
143 137 166 169 215 217 220 194 264 206 224 298 305 79 90 83 67 73 60 47 45 36 253 234 226 225 225 220 222 216 219 222 222 223 220 224 227 229 230 232 232 235 233 232 233 236 233 229 229
202 153 181 206 205 229 178 179 250 283 263 194 167 111 101 93 74 59 38 28 30 26 15 333 257 239 233 227 224 224 225 225 225 224 224 224 226 226 227 227 228 230 233 232 232 231 231 232 228
194 201 160 198 200 235 133 222 253 238 259 156 125 126 111 83 67 51 39 30 22 13 5 345 297 263 255 245 238 234 232 230 231 231 229 228 228 229 229 229 229 232 232 233 230 231 233 230 233
182 209 215 104 51 61 208 270 302 269 173 119 106 89 93 88 72 68 32 29 1 348 354 347 340 315 288 271 259 247 243 236 234 236 235 233 234 233 232 234 234 232 232 232 230 228 231 229 231
191 158 193 186 183 219 258 252 224 94 98 112 110 114 123 104 71 339 303 322 346 347 325 321 331 332 329 306 278 266 258 254 244 237 235 234 236 237 235 235 236 233 230 232 229 228 234 229 232
211 197 205 170 166 206 174 258 249 190 144 127 130 134 144 130 163 271 303 347 5 3 359 344 326 327 334 337 316 282 270 264 258 248 240 238 239 237 236 237 236 234 229 230 227 228 229 229 230
329 201 239 193 186 236 159 222 113 131 144 131 101 114 129 137 178 290 320 346 360 1 359 353 344 333 334 327 328 315 290 276 270 262 254 245 240 242 243 239 237 234 231 229 224 225 227 226 227